Regional Weather Roundup
Issued by NWS

Home | Current Version | Previous Version | Graphics & Text | Print | Product List | Glossary On
Versions: 1 2 3 4 5 6 7 8 9 10 11 12 13 14 15 16 17 18 19 20 21 22 23 24 25 26 27 28 29 30 31 32 33 34 35 36 37 38 39 40 41 42 43 44 45 46 47 48 49 50
000
ASUS43 KDTX 300901
RWRMI
MICHIGAN HOURLY REGIONAL WEATHER ROUNDUP
NATIONAL WEATHER SERVICE DETROIT/PONTIAC MI
500 AM EDT TUE AUG 30 2016

NOTE: "FAIR" INDICATES FEW OR NO CLOUDS BELOW 12,000 FEET WITH NO
SIGNIFICANT WEATHER AND/OR OBSTRUCTION TO VISIBILITY.

MIZ047>049-052>055-059>063-066>070-074>076-081>083-301000-
SOUTHEAST LOWER MICHIGAN

CITY           SKY/WX    TMP DP  RH WIND       PRES   REMARKS
ADRIAN         PTCLDY    62  62 100 CALM      30.20F
ALMA           CLOUDY    69  69  99 SW7       30.17S
ANN ARBOR      CLOUDY    62  62 100 CALM      30.18F FOG
BAD AXE        CLOUDY    61  58  89 S3        30.18F
CARO           MOCLDY    62  62  98 CALM      30.17S
DETROIT CITY   CLEAR     68  66  93 CALM      30.19S
DETROIT        PTCLDY    68  67  96 CALM      30.19S FOG
FLINT          CLOUDY    65  63  93 CALM      30.18F
GROSSE ILE     CLEAR     65  64  96 CALM      30.17F
HILLSDALE      CLEAR     65  61  89 CALM      30.20R
HOWELL         CLOUDY    67  65  91 S3        30.19S

CITY           SKY/WX    TMP DP  RH WIND       PRES   REMARKS
JACKSON        CLOUDY    68  65  90 CALM      30.18F
LAMBERTVILLE   FOG       62  61  96 CALM      30.19S VSB 1/2
LANSING        CLOUDY    70  62  76 S5        30.18F
LAPEER         FAIR      61  61  99 CALM      30.19F
MASON          CLOUDY    67  63  85 CALM      30.19S
MONROE         FOG       61  61 100 CALM      30.18S VSB 1/4
MT. CLEMENS    CLEAR     65  64  98 W1        30.17S
PONTIAC        MOCLDY    66  63  90 CALM      30.18F
PORT HURON     PTCLDY    57  57 100 CALM      30.19S FOG
TRI CITIES     CLOUDY    68  67  96 S5        30.17F
MIDLAND        FAIR      64  64 100 CALM      30.16S
TROY           CLEAR     69  65  87 CALM      30.20F
SAGINAW HB     CLOUDY    66  64  94 S5        30.16F
$$
MIZ043>046-050>051-056>058-064>065-071>073-077>080-301000-
SOUTHWEST LOWER MICHIGAN

CITY           SKY/WX    TMP DP  RH WIND       PRES   REMARKS
BATTLE CREEK   CLOUDY    68  63  84 S6        30.18F
BENTON HARBOR  TSTM      74  70  87 VRB5      30.17R FOG
BIG RAPIDS     CLOUDY    65  64  97 CALM      30.17F
COLDWATER      CLOUDY    68  63  85 S3        30.18F
FREMONT        FAIR      66  66  98 CALM      30.16F
HOLLAND        PTCLDY    72  69  90 CALM      30.16F
GRAND RAPIDS   CLOUDY    70  67  90 SE3       30.17F
IONIA          FAIR      70  66  89 CALM      30.16F
KALAMAZOO      CLOUDY    72  66  81 S6        30.17F
LUDINGTON      CLOUDY    64  64 100 CALM      30.15F FOG
MARSHALL       CLOUDY    68  64  86 CALM      30.18F
MUSKEGON       CLOUDY    71  69  93 SE3       30.15F
SOUTH HAVEN    LGT RAIN  72  68  88 SW8       30.17S
$$
MIZ016>042-301000-
NORTHERN LOWER MICHIGAN

CITY           SKY/WX    TMP DP  RH WIND       PRES   REMARKS
ALPENA         CLEAR     63  60  90 CALM      30.14S
BEAVER ISLAND  MOCLDY    72  69  91 SW9       30.11S
BELLAIRE       PTCLDY    66  64  94 CALM      30.13F
CADILLAC       FOG       64  63  97 W3        30.18S VSB 1
CHARLEVOIX     PTCLDY    71  65  80 SW7       30.15S
FRANKFORT      CLOUDY    71  67  88 CALM      30.14F
GAYLORD        CLEAR     67  64  90 SW5       30.16F
GRAYLING       FOG       60  60  99 CALM      30.18S VSB 1/4
HARBOR SPRINGS CLEAR     68  65  89 CALM      30.12F
HOUGHTON LAKE  CLEAR     68  65  90 SW6       30.18S
MANISTEE       MOCLDY    61  60  97 CALM      30.15S FOG
OSCODA         PTCLDY    64  64  99 SW3       30.15S
PELLSTON       CLEAR     72  63  73 CALM      30.12S
ROGERS CITY    CLOUDY    69  65  87 SW7       30.13S
TRAVERSE CITY  PTCLDY    68  64  87 CALM      30.13S
$$
MIZ007>008-015-301000-
EASTERN UPPER MICHIGAN

CITY           SKY/WX    TMP DP  RH WIND       PRES   REMARKS
KINROSS        CLOUDY    66  66 100 W5        30.09S
MACKINAC ISLAN MOCLDY    71  64  79 SW8       30.10S
NEWBERRY       CLOUDY    69  68  96 W6        30.09S
S. S. MARIE    MOCLDY    65  63  93 CALM      30.09S
$$
MIZ004>006-011>014-085-301000-
CENTRAL UPPER MICHIGAN

CITY           SKY/WX    TMP DP  RH WIND       PRES   REMARKS
MANISTIQUE     CLOUDY    70  67  92 CALM      30.08F
ESCANABA       MOCLDY    69  68  96 CALM      30.10F
MENOMINEE      MOCLDY   N/A N/A N/A VRB3        N/A
SAWYER-GWINN   CLOUDY    68  65  90 NW5       30.11F
$$
MIZ001>003-009>011-084-301000-
WESTERN UPPER MICHIGAN

CITY           SKY/WX    TMP DP  RH WIND       PRES   REMARKS
IRON MOUNTAIN  CLOUDY    70  66  87 CALM      30.10F
HOUGHTON       CLOUDY    70  64  81 W14       30.09F
IRONWOOD       CLOUDY    65  64  97 W7        30.13F
$$

ABBREVIATIONS USED IN REMARKS
   TC - TEMPERATURE IN CELSIUS
  WCI - WIND CHILL INDEX
   HX - HEAT INDEX
  VSB - VISIBILITY





USA.gov is the U.S. government's official web portal to all federal, state and local government web resources and services.